Вернуться в каталог

STARLINK-3601

АктивенСвязьVLEO
NORAD 51804·PAYLOAD·🇺🇸 United States

Запущен Feb 25, 2022 с Vandenberg Space Force Base

Loading…

Ближайшие Пролёты (ближайшие 24 часа)

TLE

СвежийSource: CelesTrak SupGP

Эпоха: Sep 14, 2026, 20:32 UTC

1 51804C 22017AN  26257.85604167  .00003583  00000+0  10584-3 0  2575
2 51804  53.1576 189.7564 0001370 101.0111  40.1813 15.34398752    18

Отслеживайте STARLINK-3601 в реальном времени с AllMySat

Download on the App Store